When you browse on this site, cookies collect data to enhance your experience and personalize the content and advertising you see.
Visit our Privacy Policy to learn more. By continuing to use the site, you agree to this use of cookies and data.
  • In Hungary
  • List of Countries
  • For 7 days
  • Water Temperature
  • Weather Map
  • News
  • Weather Widgets
  • user-avatar
    Login

    Hourly Weather Slizow

    Today, 13 December, Friday

    Time Temperature Precipitation Wind Pressure Humidity
    00:00 -1°C° 0 mm 3 mps 731 mmHg 83%
    01:00 -1°C° 0 mm 3 mps 730 mmHg 90%
    02:00 -2°C° 0 mm 4 mps 729 mmHg 91%
    03:00 -2°C° 0 mm 4 mps 729 mmHg 93%
    04:00 -1°C° 0 mm 4 mps 728 mmHg 94%
    05:00 -1°C° 0 mm 4 mps 727 mmHg 94%
    06:00 -1°C° 0 mm 4 mps 726 mmHg 94%
    07:00 -2°C° 0 mm 5 mps 725 mmHg 94%
    08:00 -1°C° 0 mm 5 mps 725 mmHg 91%
    09:00 0°C° 0 mm 5 mps 724 mmHg 89%
    10:00 0°C° 0 mm 5 mps 723 mmHg 86%
    11:00 +1°C° 0 mm 5 mps 722 mmHg 83%
    12:00 +1°C° 0 mm 5 mps 722 mmHg 80%
    13:00 +1°C° 0 mm 6 mps 721 mmHg 76%
    14:00 +1°C° 0 mm 6 mps 721 mmHg 77%
    15:00 +1°C° 0 mm 6 mps 721 mmHg 78%
    16:00 -1°C° 0 mm 6 mps 721 mmHg 80%
    17:00 0°C° 0 mm 5 mps 721 mmHg 80%
    18:00 -1°C° 0 mm 5 mps 721 mmHg 81%
    19:00 -1°C° 0 mm 4 mps 722 mmHg 82%
    20:00 -1°C° 0 mm 5 mps 722 mmHg 81%
    21:00 -1°C° 0 mm 5 mps 722 mmHg 81%
    22:00 -1°C° 0 mm 6 mps 723 mmHg 80%
    23:00 -2°C° 0 mm 6 mps 723 mmHg 81%

    Tomorrow, 14 December, Saturday

    Time Temperature Precipitation Wind Pressure Humidity
    00:00 -2°C° 0 mm 6 mps 723 mmHg 81%
    01:00 -2°C° 0 mm 6 mps 724 mmHg 82%
    02:00 -1°C° 0 mm 6 mps 724 mmHg 80%
    03:00 -1°C° 0 mm 6 mps 724 mmHg 78%
    04:00 -1°C° 0 mm 6 mps 724 mmHg 76%
    05:00 +1°C° 0 mm 6 mps 724 mmHg 76%
    06:00 +1°C° 0 mm 6 mps 725 mmHg 77%
    07:00 +1°C° 0 mm 6 mps 725 mmHg 77%
    08:00 +1°C° 0 mm 6 mps 725 mmHg 76%
    09:00 +2°C° 0 mm 6 mps 726 mmHg 76%
    10:00 +2°C° 0 mm 6 mps 726 mmHg 75%
    11:00 +3°C° 0.1 mm 6 mps 726 mmHg 73%
    12:00 +3°C° 0.1 mm 7 mps 726 mmHg 71%
    13:00 +3°C° 0.1 mm 7 mps 725 mmHg 68%
    14:00 +2°C° 0.5 mm 8 mps 726 mmHg 72%
    15:00 +2°C° 0.5 mm 8 mps 726 mmHg 76%
    16:00 +2°C° 0.5 mm 9 mps 726 mmHg 80%
    17:00 +2°C° 0 mm 8 mps 727 mmHg 80%
    18:00 +1°C° 0 mm 8 mps 729 mmHg 80%
    19:00 +2°C° 0 mm 7 mps 730 mmHg 80%
    20:00 +2°C° 0 mm 6 mps 731 mmHg 77%
    21:00 +1°C° 0 mm 6 mps 732 mmHg 75%
    22:00 +1°C° 0 mm 5 mps 733 mmHg 72%
    23:00 +1°C° 0 mm 5 mps 733 mmHg 75%

    Day after tomorrow, 15 December, Sunday

    Time Temperature Precipitation Wind Pressure Humidity
    00:00 +1°C° 0 mm 4 mps 733 mmHg 78%
    01:00 +1°C° 0 mm 4 mps 734 mmHg 80%
    02:00 +1°C° 0 mm 4 mps 734 mmHg 81%
    03:00 +1°C° 0 mm 5 mps 735 mmHg 81%
    04:00 +1°C° 0 mm 5 mps 735 mmHg 82%
    05:00 +1°C° 0 mm 5 mps 735 mmHg 83%
    06:00 +1°C° 0 mm 5 mps 735 mmHg 84%
    07:00 +1°C° 0 mm 5 mps 735 mmHg 85%
    08:00 +2°C° 0.1 mm 5 mps 735 mmHg 83%
    09:00 +3°C° 0.1 mm 6 mps 735 mmHg 82%
    10:00 +3°C° 0.1 mm 6 mps 735 mmHg 80%
    11:00 +5°C° 0.5 mm 7 mps 734 mmHg 76%
    12:00 +6°C° 0.5 mm 8 mps 734 mmHg 73%
    13:00 +7°C° 0.5 mm 8 mps 734 mmHg 69%
    14:00 +7°C° 0.1 mm 8 mps 735 mmHg 72%
    15:00 +8°C° 0.1 mm 7 mps 736 mmHg 74%
    16:00 +8°C° 0.1 mm 7 mps 736 mmHg 77%
    17:00 +7°C° 0.2 mm 6 mps 737 mmHg 76%
    18:00 +6°C° 0.2 mm 4 mps 738 mmHg 74%
    19:00 +7°C° 0.2 mm 3 mps 739 mmHg 73%
    20:00 +5°C° 0 mm 3 mps 740 mmHg 76%
    21:00 +4°C° 0 mm 3 mps 741 mmHg 78%
    22:00 +5°C° 0 mm 2 mps 741 mmHg 81%
    23:00 +5°C° 0 mm 2 mps 741 mmHg 83%

    16 December, Monday

    Time Temperature Precipitation Wind Pressure Humidity
    00:00 +4°C° 0 mm 2 mps 742 mmHg 84%
    01:00 +3°C° 0 mm 3 mps 742 mmHg 85%
    02:00 +3°C° 0 mm 3 mps 742 mmHg 86%
    03:00 +3°C° 0 mm 3 mps 742 mmHg 86%
    04:00 +3°C° 0 mm 3 mps 742 mmHg 86%
    05:00 +3°C° 0 mm 3 mps 742 mmHg 86%
    06:00 +3°C° 0 mm 3 mps 742 mmHg 85%
    07:00 +4°C° 0 mm 3 mps 742 mmHg 85%
    08:00 +4°C° 0 mm 3 mps 742 mmHg 82%
    09:00 +5°C° 0 mm 3 mps 742 mmHg 79%
    10:00 +5°C° 0 mm 3 mps 742 mmHg 77%
    11:00 +7°C° 0 mm 3 mps 742 mmHg 75%
    12:00 +8°C° 0 mm 3 mps 742 mmHg 73%
    13:00 +8°C° 0 mm 3 mps 742 mmHg 72%
    14:00 +8°C° 0 mm 3 mps 741 mmHg 75%
    15:00 +7°C° 0 mm 3 mps 741 mmHg 78%
    16:00 +5°C° 0 mm 3 mps 741 mmHg 82%
    17:00 +5°C° 0 mm 3 mps 741 mmHg 84%
    18:00 +5°C° 0 mm 3 mps 741 mmHg 86%
    19:00 +5°C° 0 mm 3 mps 741 mmHg 87%
    20:00 +5°C° 0 mm 3 mps 741 mmHg 88%
    21:00 +4°C° 0 mm 3 mps 741 mmHg 88%
    22:00 +4°C° 0 mm 3 mps 740 mmHg 89%
    23:00 +4°C° 0 mm 3 mps 740 mmHg 89%

    17 December, Tuesday

    Time Temperature Precipitation Wind Pressure Humidity
    00:00 +4°C° 0 mm 4 mps 740 mmHg 89%
    01:00 +5°C° 0 mm 4 mps 740 mmHg 89%
    02:00 +5°C° 0 mm 4 mps 739 mmHg 89%
    03:00 +4°C° 0 mm 4 mps 739 mmHg 89%
    04:00 +4°C° 0 mm 4 mps 739 mmHg 89%
    05:00 +4°C° 0 mm 4 mps 739 mmHg 89%
    06:00 +4°C° 0 mm 3 mps 739 mmHg 90%
    07:00 +4°C° 0 mm 3 mps 738 mmHg 90%
    08:00 +4°C° 0 mm 3 mps 739 mmHg 89%
    09:00 +5°C° 0 mm 3 mps 739 mmHg 89%
    10:00 +5°C° 0 mm 3 mps 739 mmHg 88%
    11:00 +7°C° 0 mm 3 mps 739 mmHg 85%
    12:00 +7°C° 0 mm 3 mps 738 mmHg 82%
    13:00 +8°C° 0 mm 3 mps 738 mmHg 79%
    14:00 +8°C° 0 mm 3 mps 738 mmHg 82%
    15:00 +7°C° 0 mm 2 mps 738 mmHg 85%
    16:00 +6°C° 0 mm 2 mps 738 mmHg 88%
    17:00 +6°C° 0 mm 2 mps 738 mmHg 88%
    18:00 +6°C° 0 mm 2 mps 738 mmHg 89%
    19:00 +7°C° 0 mm 1 mps 738 mmHg 90%
    20:00 +6°C° 0 mm 2 mps 738 mmHg 90%
    21:00 +5°C° 0 mm 2 mps 739 mmHg 90%
    22:00 +5°C° 0 mm 2 mps 739 mmHg 90%
    23:00 +5°C° 0 mm 2 mps 739 mmHg 90%

    18 December, Wednesday

    Time Temperature Precipitation Wind Pressure Humidity
    00:00 +5°C° 0 mm 2 mps 739 mmHg 90%
    01:00 +5°C° 0 mm 2 mps 739 mmHg 90%
    02:00 +5°C° 0 mm 2 mps 739 mmHg 90%
    03:00 +5°C° 0 mm 2 mps 739 mmHg 89%
    04:00 +5°C° 0 mm 2 mps 739 mmHg 89%
    05:00 +5°C° 0 mm 2 mps 739 mmHg 89%
    06:00 +5°C° 0 mm 2 mps 739 mmHg 89%
    07:00 +5°C° 0 mm 2 mps 739 mmHg 89%
    08:00 +5°C° 0 mm 2 mps 740 mmHg 87%
    09:00 +6°C° 0 mm 2 mps 740 mmHg 86%
    10:00 +6°C° 0 mm 2 mps 741 mmHg 84%
    11:00 +7°C° 0 mm 3 mps 741 mmHg 79%
    12:00 +8°C° 0 mm 3 mps 741 mmHg 74%
    13:00 +8°C° 0 mm 3 mps 741 mmHg 69%
    14:00 +8°C° 0 mm 3 mps 741 mmHg 74%
    15:00 +7°C° 0 mm 2 mps 742 mmHg 80%
    16:00 +6°C° 0 mm 2 mps 742 mmHg 85%
    17:00 +5°C° 0 mm 2 mps 742 mmHg 87%
    18:00 +6°C° 0 mm 1 mps 742 mmHg 89%
    19:00 +6°C° 0 mm 1 mps 742 mmHg 91%
    20:00 +6°C° 0 mm 1 mps 742 mmHg 91%
    21:00 +6°C° 0 mm 1 mps 742 mmHg 90%
    22:00 +5°C° 0 mm 0 mps 742 mmHg 90%
    23:00 +6°C° 0 mm 1 mps 742 mmHg 90%
    Show more